Wind_Speed
68 71 79 82 86 88 98 104 108 108 107 100 103 107 110 114 116 116 113 111 108 106 103 99 94 91 88 85 81 75 70 66 63 63 65 60 57 53 55 55 51 49 48 48
65 68 71 72 80 86 88 95 99 100 101 98 96 98 105 105 108 112 113 113 111 108 106 103 98 96 92 87 85 80 74 70 65 59 61 58 60 58 64 61 61 58 57 57
61 64 66 73 75 77 83 87 89 94 95 96 94 94 97 101 103 105 107 108 109 110 109 106 102 98 97 91 87 84 77 71 67 63 61 64 65 64 67 66 67 67 67 67
55 59 67 67 71 72 74 76 88 93 92 92 92 92 89 91 97 102 104 104 104 105 109 107 105 100 98 94 89 88 82 74 69 66 64 71 74 68 69 70 72 69 76 77
48 53 59 64 67 70 70 72 76 84 88 90 89 88 84 83 87 93 96 98 99 101 104 107 106 103 99 95 92 91 89 82 75 70 68 72 77 79 69 76 78 79 77 77
40 45 50 55 59 62 62 69 71 73 77 81 83 81 81 83 84 87 88 90 94 95 98 100 101 101 100 96 94 94 91 87 81 77 74 73 85 87 81 75 80 82 84 80
31 35 42 48 51 54 61 64 68 70 70 72 75 79 84 82 83 82 84 86 85 88 93 96 97 98 98 96 97 96 94 92 87 82 79 78 83 90 96 84 79 85 86 88
25 28 33 38 42 47 51 57 59 64 66 68 70 70 77 84 86 83 83 84 85 88 89 91 96 98 99 97 97 97 96 95 94 88 85 83 83 91 97 99 90 85 85 89
16 21 26 30 33 39 44 49 52 58 62 65 66 69 73 78 78 81 84 85 85 87 89 91 96 95 97 98 99 99 100 100 97 95 91 87 87 88 98 98 102 95 92 86
9 14 18 23 28 33 37 42 48 51 54 58 62 65 68 73 73 75 81 87 84 87 89 93 95 95 95 97 100 102 103 104 101 99 97 94 89 91 92 99 98 104 101 101
5 8 11 17 21 25 31 37 42 45 47 50 52 58 63 68 72 75 74 83 86 88 88 93 94 89 91 96 100 102 105 106 105 103 101 98 95 93 98 96 100 100 106 104
4 5 8 11 15 21 24 29 33 37 41 43 46 50 56 61 65 69 74 76 81 86 86 93 95 93 92 94 98 99 102 105 107 107 105 102 100 98 97 99 99 101 99 102
7 5 5 10 13 16 19 23 27 31 34 36 40 43 48 54 59 62 68 75 78 79 85 91 95 96 95 93 99 102 106 107 109 109 108 105 105 104 102 100 100 101 102 104
8 6 5 10 11 12 15 18 22 26 28 31 35 40 43 48 53 57 62 67 73 76 77 87 92 93 95 95 98 103 106 110 111 110 111 111 110 108 107 105 102 102 105 105
14 10 8 8 9 8 12 16 20 22 25 26 27 32 36 41 45 51 57 63 66 70 76 80 86 91 94 96 97 102 105 109 111 113 114 113 113 112 110 108 107 105 105 106
17 14 11 9 9 8 9 13 15 17 20 23 24 25 30 33 37 42 49 55 60 65 68 73 80 88 92 95 96 100 104 109 109 113 115 115 114 113 112 112 111 110 110 109
20 18 15 12 11 10 8 10 11 15 19 20 23 25 26 29 32 36 41 46 52 58 64 67 74 81 85 88 96 99 103 107 105 109 111 112 116 117 116 116 115 113 113 112
21 18 16 15 12 10 9 9 11 12 16 18 20 23 25 27 30 32 36 41 46 51 56 62 65 69 76 91 94 95 99 105 105 109 110 106 112 116 118 118 117 117 115 113
25 21 18 15 13 13 11 9 9 11 12 15 18 19 22 24 28 30 33 37 42 47 52 57 61 65 73 77 88 98 101 99 101 107 108 108 109 108 107 112 114 114 114 112
26 23 20 18 15 13 12 11 11 10 11 13 14 16 18 21 25 29 30 33 38 43 46 50 56 61 66 74 84 88 93 102 105 103 103 103 103 102 102 101 102 102 103 105
27 25 22 19 18 16 13 12 11 11 12 12 13 15 16 19 23 25 29 33 35 39 43 47 51 56 63 69 76 80 86 94 94 97 98 94 96 97 99 98 96 97 99 100
26 25 24 21 19 17 16 14 13 12 11 12 14 16 17 18 21 24 27 29 35 39 42 46 50 53 57 63 69 74 78 82 84 88 88 87 85 88 92 91 93 95 95 99
26 24 23 23 22 21 19 16 15 14 14 13 13 14 17 20 21 23 26 29 33 36 41 47 50 52 55 60 65 68 72 77 82 84 82 81 80 78 79 75 79 86 92 96
26 25 23 22 22 22 22 22 20 17 16 17 17 17 17 19 22 25 26 29 33 36 40 43 47 52 55 57 61 64 67 71 72 73 75 77 76 77 76 73 74 77 82 87
26 24 23 23 23 22 23 23 23 25 23 21 21 20 20 21 23 26 28 32 33 35 38 41 44 48 51 56 61 63 65 67 68 69 68 69 72 74 75 76 76 76 77 79
24 23 22 23 23 22 22 23 25 25 28 26 25 27 24 23 25 27 30 30 34 37 38 40 42 44 48 52 55 58 61 65 68 70 71 73 73 74 75 77 78 79 80 81
25 25 24 23 23 24 24 25 26 25 28 30 28 29 31 30 29 26 29 32 34 36 39 40 42 43 44 46 49 52 54 56 59 62 65 67 68 69 71 72 73 74 74 74
Wind_Direction
237 236 236 235 237 234 237 239 241 244 245 242 240 240 240 239 239 239 239 240 240 241 242 242 243 243 244 246 246 245 244 245 244 242 240 238 237 232 225 226 221 204 206 205
237 236 236 236 236 235 234 236 238 238 241 242 240 238 239 239 239 241 241 241 241 241 241 241 242 243 243 243 244 244 245 244 242 237 233 229 227 221 215 218 223 217 215 214
235 234 235 236 235 235 234 233 236 238 237 240 239 238 236 236 238 239 239 240 241 241 239 239 239 240 243 242 243 243 243 241 239 234 230 219 217 219 220 218 222 222 221 218
235 233 233 232 235 235 234 233 232 235 236 236 238 238 237 234 235 237 237 238 238 239 239 239 238 239 241 241 241 243 242 241 237 231 228 216 214 214 220 220 220 222 223 224
234 230 232 232 232 233 232 233 234 235 237 237 236 238 237 237 235 234 235 236 236 236 236 238 239 240 240 240 238 239 240 240 238 231 226 217 217 213 216 222 222 221 222 226
233 231 233 233 234 234 234 234 234 234 236 238 239 238 238 237 235 234 235 234 234 234 235 236 236 237 237 236 235 235 236 237 236 233 225 222 217 215 215 220 223 224 225 225
234 232 232 232 231 231 230 231 231 233 232 233 236 234 236 234 234 233 233 234 234 234 232 232 232 233 233 233 232 232 234 234 233 231 226 223 219 218 217 216 217 223 225 226
233 231 232 233 232 234 235 236 235 235 234 232 231 230 232 234 233 230 230 231 230 231 231 230 231 230 230 231 231 232 231 232 230 228 228 224 222 220 219 220 218 217 224 227
233 229 229 231 231 231 233 235 236 235 234 233 231 230 228 231 233 231 230 228 228 228 229 230 229 228 229 229 230 230 229 229 229 228 228 227 224 223 222 225 225 221 221 222
235 231 227 228 228 228 230 232 235 235 234 233 232 231 230 229 231 231 227 229 227 228 226 228 229 228 226 226 226 226 226 225 226 227 227 228 226 224 225 226 230 228 227 223
272 238 229 226 226 228 230 232 235 236 235 234 231 232 231 230 228 227 227 227 227 227 225 226 229 229 227 225 226 225 224 224 224 226 228 228 229 228 226 227 228 230 229 229
300 256 239 233 229 227 230 233 235 235 236 236 233 229 230 230 229 228 226 226 226 227 224 224 227 229 227 225 228 228 227 226 226 227 228 229 231 233 231 230 230 231 233 233
336 315 254 248 246 237 229 232 236 237 236 235 235 233 230 230 229 228 225 225 226 224 224 225 226 227 228 225 226 228 228 226 227 228 229 231 232 233 235 235 233 233 235 236
342 305 282 249 248 253 249 242 239 240 238 233 232 233 230 228 226 224 226 225 225 227 224 223 226 226 228 226 224 227 228 228 229 229 230 231 232 234 236 237 237 236 237 238
7 351 332 310 271 259 258 251 250 246 246 241 231 233 232 231 228 224 223 224 225 224 224 223 225 226 226 227 226 227 229 230 230 231 232 233 233 234 236 238 239 240 240 240
6 2 352 320 296 271 258 256 252 255 250 247 240 230 229 229 228 227 225 223 224 224 223 221 222 225 225 226 227 227 228 231 232 232 233 233 235 237 237 238 239 240 242 243
2 359 353 345 332 313 293 270 253 251 256 252 245 238 227 225 225 222 223 223 223 223 222 221 221 223 226 226 226 227 228 232 234 235 237 236 236 237 239 240 241 242 243 244
0 357 352 347 337 324 307 280 272 260 257 259 250 244 235 226 221 218 218 220 221 220 220 220 221 221 221 224 227 229 228 231 235 236 238 239 239 239 240 242 242 244 245 247
357 355 352 349 343 332 320 304 287 270 266 256 253 247 241 239 229 221 217 217 219 218 218 219 219 219 219 222 225 227 230 232 233 235 238 240 242 243 243 243 245 246 248 250
345 350 349 346 343 336 328 317 304 286 268 260 255 250 249 241 238 229 220 219 218 216 216 218 218 219 219 220 223 226 228 230 234 237 238 240 243 245 247 247 248 248 249 251
327 332 338 342 341 337 331 325 316 301 289 273 259 250 245 248 243 237 228 219 217 218 217 216 218 220 221 222 224 224 226 232 235 238 241 242 243 243 245 247 248 249 250 250
315 318 321 327 333 335 332 326 318 308 297 284 274 266 258 243 241 247 242 231 225 220 217 219 218 219 221 224 226 228 229 232 236 238 241 244 244 244 245 245 245 246 246 247
309 308 310 314 318 322 324 324 320 313 304 295 282 270 264 263 256 239 239 243 239 232 226 221 220 220 219 222 227 228 229 232 234 238 241 243 244 245 244 241 239 238 241 245
313 310 308 307 308 309 312 314 315 313 308 301 293 286 274 264 259 259 254 243 238 238 236 233 230 225 223 223 224 227 231 234 236 239 241 244 247 249 250 250 248 247 246 246
316 317 314 305 303 304 303 305 307 307 306 302 297 288 281 277 271 264 256 255 252 245 241 239 236 234 233 232 229 229 229 230 233 236 239 241 244 246 248 250 251 251 251 251
319 316 314 309 305 304 300 297 298 300 301 301 300 295 289 280 272 267 266 258 253 253 249 245 242 239 236 235 236 237 237 238 238 237 236 237 240 243 244 246 248 250 252 252
330 324 319 313 307 304 303 300 299 299 297 298 296 290 289 286 280 269 263 261 257 252 251 249 248 247 244 241 240 239 238 238 239 241 241 242 243 244 246 248 249 250 251 252
Height
10098 10108 10116 10128 10138 10155 10162 10172 10182 10195 10211 10230 10251 10267 10279 10291 10303 10318 10330 10343 10355 10366 10377 10389 10401 10412 10423 10432 10444 10455 10465 10472 10481 10489 10497 10510 10516 10525 10532 10539 10548 10552 10559 10564
10080 10090 10099 10109 10118 10130 10140 10147 10156 10171 10183 10196 10218 10237 10250 10264 10279 10293 10307 10320 10332 10344 10356 10367 10379 10390 10401 10413 10423 10434 10446 10457 10464 10474 10482 10493 10500 10510 10519 10526 10535 10543 10549 10555
10063 10072 10082 10084 10093 10106 10118 10127 10138 10145 10160 10171 10187 10200 10219 10237 10252 10266 10278 10292 10305 10317 10330 10343 10355 10368 10379 10392 10403 10414 10426 10438 10448 10457 10466 10477 10486 10494 10502 10511 10519 10530 10536 10541
10046 10056 10057 10070 10076 10088 10098 10108 10117 10122 10135 10150 10161 10175 10192 10212 10226 10238 10250 10264 10278 10290 10305 10319 10332 10345 10357 10371 10384 10394 10407 10420 10431 10441 10449 10461 10470 10478 10485 10495 10504 10511 10520 10526
10029 10038 10045 10052 10058 10066 10078 10089 10099 10108 10119 10130 10145 10155 10172 10187 10204 10215 10226 10239 10253 10265 10279 10294 10309 10323 10335 10349 10362 10373 10385 10399 10412 10423 10431 10442 10452 10464 10471 10477 10485 10493 10500 10509
10019 10026 10032 10039 10046 10056 10067 10071 10081 10092 10102 10111 10125 10141 10153 10167 10179 10190 10204 10217 10228 10243 10257 10270 10283 10297 10310 10324 10338 10351 10364 10376 10389 10403 10414 10423 10434 10444 10455 10462 10468 10476 10483 10490
10010 10015 10020 10024 10033 10041 10045 10055 10060 10069 10082 10094 10106 10122 10128 10143 10153 10167 10181 10195 10208 10220 10232 10243 10258 10271 10285 10300 10314 10328 10341 10354 10366 10380 10392 10403 10414 10424 10435 10445 10453 10459 10466 10471
10003 10007 10011 10015 10023 10029 10035 10039 10050 10057 10066 10076 10088 10099 10108 10115 10128 10143 10157 10171 10185 10197 10208 10220 10230 10246 10259 10276 10291 10304 10319 10331 10342 10356 10369 10381 10391 10403 10414 10425 10436 10443 10450 10456
9998 10001 10003 10007 10013 10018 10023 10027 10034 10039 10046 10055 10067 10077 10087 10092 10104 10118 10133 10146 10160 10173 10183 10194 10203 10222 10235 10250 10266 10279 10292 10306 10320 10333 10346 10359 10371 10382 10392 10403 10413 10423 10431 10437
9994 9995 9997 10000 10003 10006 10012 10015 10018 10025 10032 10040 10050 10059 10069 10076 10086 10095 10111 10122 10138 10148 10160 10170 10181 10199 10213 10226 10239 10254 10267 10282 10296 10310 10322 10336 10350 10362 10371 10379 10386 10397 10406 10414
9990 9991 9992 9994 9996 10000 10002 10005 10007 10013 10019 10025 10035 10042 10049 10056 10064 10074 10088 10101 10115 10124 10139 10149 10163 10181 10196 10206 10217 10232 10247 10262 10275 10288 10299 10314 10326 10337 10346 10354 10362 10371 10381 10389
9988 9988 9988 9989 9991 9992 9995 9997 10000 10003 10008 10014 10020 10027 10032 10038 10047 10058 10069 10079 10092 10105 10119 10130 10143 10158 10175 10190 10201 10214 10229 10244 10255 10266 10278 10293 10304 10313 10323 10332 10341 10349 10358 10367
9987 9986 9985 9985 9986 9987 9988 9990 9992 9994 9998 10003 10007 10013 10019 10023 10031 10041 10051 10061 10069 10081 10098 10111 10122 10136 10151 10171 10183 10195 10207 10221 10230 10244 10257 10270 10281 10289 10299 10309 10320 10328 10336 10343
9987 9985 9984 9982 9983 9984 9984 9985 9985 9986 9989 9993 9996 9998 10003 10008 10015 10025 10034 10043 10054 10066 10079 10090 10102 10118 10132 10148 10163 10174 10185 10196 10209 10223 10233 10244 10255 10265 10275 10285 10296 10305 10313 10319
9988 9985 9982 9981 9980 9979 9980 9980 9980 9980 9981 9984 9989 9991 9993 9997 10003 10010 10018 10026 10037 10048 10059 10071 10084 10098 10110 10125 10142 10152 10164 10173 10186 10200 10210 10219 10231 10242 10251 10263 10271 10279 10285 10292
9989 9986 9983 9981 9979 9977 9975 9975 9976 9975 9975 9977 9979 9983 9985 9987 9992 9999 10006 10013 10022 10030 10041 10053 10066 10074 10088 10103 10119 10130 10143 10150 10163 10174 10185 10198 10208 10218 10229 10237 10245 10253 10260 10267
9989 9985 9982 9980 9977 9975 9973 9972 9970 9970 9970 9971 9973 9974 9978 9980 9984 9988 9994 10001 10008 10016 10025 10036 10047 10057 10070 10090 10099 10108 10122 10130 10142 10153 10160 10176 10186 10194 10203 10210 10219 10228 10236 10242
9988 9984 9981 9978 9975 9973 9971 9969 9968 9966 9965 9965 9967 9968 9970 9972 9975 9979 9984 9990 9996 10003 10012 10022 10032 10046 10059 10062 10075 10091 10101 10109 10119 10128 10136 10149 10160 10170 10178 10186 10196 10203 10210 10218
9986 9982 9978 9975 9973 9970 9968 9966 9965 9963 9962 9961 9961 9962 9965 9966 9968 9972 9976 9981 9986 9992 10000 10009 10018 10028 10037 10050 10059 10068 10077 10089 10099 10105 10114 10122 10132 10141 10154 10162 10170 10180 10186 10192
9984 9979 9975 9972 9969 9966 9964 9963 9961 9960 9959 9958 9957 9958 9958 9960 9962 9965 9968 9973 9978 9983 9989 9997 10006 10014 10023 10032 10038 10050 10061 10066 10069 10080 10088 10099 10109 10117 10125 10136 10144 10153 10161 10166
9978 9975 9972 9968 9965 9963 9960 9958 9956 9956 9955 9954 9953 9952 9954 9954 9956 9959 9962 9965 9969 9975 9980 9987 9994 10002 10009 10016 10024 10034 10041 10045 10054 10063 10068 10077 10089 10097 10104 10111 10120 10128 10134 10139
9972 9969 9965 9963 9960 9957 9955 9953 9952 9950 9949 9949 9948 9947 9947 9948 9950 9951 9954 9959 9961 9964 9969 9975 9981 9989 9996 10002 10009 10016 10025 10030 10036 10042 10047 10055 10061 10072 10079 10087 10095 10101 10106 10110
9965 9962 9958 9955 9953 9951 9948 9947 9946 9944 9942 9941 9941 9942 9941 9941 9941 9944 9946 9948 9951 9956 9960 9963 9967 9973 9979 9987 9992 10000 10007 10013 10017 10020 10026 10032 10038 10044 10051 10058 10066 10073 10079 10084
9958 9955 9952 9950 9947 9944 9942 9939 9938 9937 9936 9935 9933 9933 9933 9934 9934 9934 9936 9938 9941 9944 9947 9952 9956 9961 9964 9969 9975 9982 9988 9995 10001 10006 10011 10016 10020 10025 10031 10036 10042 10048 10054 10059
9950 9948 9946 9942 9940 9938 9935 9933 9930 9927 9926 9926 9925 9924 9924 9924 9924 9925 9927 9927 9929 9932 9934 9937 9942 9946 9951 9955 9959 9963 9968 9974 9980 9986 9991 9997 10002 10006 10010 10014 10018 10023 10028 10032
9944 9940 9938 9935 9932 9930 9928 9925 9923 9920 9916 9915 9914 9912 9914 9914 9914 9914 9913 9915 9918 9918 9920 9922 9925 9930 9935 9938 9943 9947 9952 9956 9961 9966 9970 9974 9979 9983 9988 9993 9996 10000 10004 10009
9938 9933 9930 9927 9924 9921 9919 9916 9913 9912 9909 9905 9904 9903 9900 9899 9900 9901 9902 9902 9902 9904 9906 9908 9910 9912 9916 9921 9925 9929 9933 9938 9943 9948 9953 9958 9962 9966 9970 9974 9978 9982 9986 9990